Cecil Field, FL

5:13 AM EDT on May 24, 2017 (GMT -0400)
Cecil

Weather History for KVQQ - April, 2014

Change the Weather History Date:

Wednesday, April 16, 2014

  Actual Average (KNIP) Record (KNIP)
Temperature  
Mean Temperature 51 °F -  
Max Temperature 60 °F 77 °F 91 °F (2011)
Min Temperature 42 °F 59 °F 46 °F (2007)
Degree Days  
Heating Degree Days 14    
Growing Degree Days 1 (Base 50)    
Moisture  
Dew Point 43 °F    
Average Humidity 74    
Maximum Humidity 88    
Minimum Humidity 59    
Precipitation  
Precipitation 0.00 in - - ()
Sea Level Pressure  
Sea Level Pressure 30.16 in    
Wind  
Wind Speed 11 mph (North)    
Max Wind Speed 18 mph    
Max Gust Speed 24 mph    
Visibility 10 miles    
Events      
Averages and records for this station are not official NWS values.
T = Trace of Precipitation, MM = Missing Value Source: NWS Daily Summary

Daily Weather History Graph

Daily Weather History Graph

Search for Another Location

Airport or City:

Trip Planner

Search our weather history database for the weather conditions in past years. The results will help you decide how hot, cold, wet, or windy it might be!

Date:

Astronomy

Apr. 16, 2014 Rise Set
Actual Time 6:59 AM EDT 7:55 PM EDT
Civil Twilight 6:34 AM EDT 8:20 PM EDT
Nautical Twilight 6:05 AM EDT 8:49 PM EDT
Astronomical Twilight 5:35 AM EDT 9:19 PM EDT
Moon 9:31 PM EDT (4/16) 7:50 AM EDT (4/16)
Length of Visible Light 13h 45m
Length of Day
12h 56m
Full, 98% of the Moon is Illuminated
Apr 16
Full
Apr 22
Last Quarter
Apr 29
New
May 6
First Quarter
May 14
Full

Hourly Weather History & Observations

Time (EDT) Temp. Windchill Dew Point Humidity Pressure Visibility Wind Dir Wind Speed Gust Speed Precip Events Conditions
12:15 AM 50.0 °F - 41.0 °F 71% 30.04 in 10.0 mi NW 10.4 mph - N/A   Partly Cloudy
12:35 AM 50.0 °F - 41.0 °F 71% 30.04 in 10.0 mi NW 15.0 mph 18.4 mph N/A   Clear
12:55 AM 48.2 °F - 41.0 °F 76% 30.05 in 10.0 mi NW 9.2 mph - N/A   Clear
1:15 AM 48.2 °F - 41.0 °F 76% 30.06 in 10.0 mi NW 8.1 mph - N/A   Clear
1:35 AM 48.2 °F - 39.2 °F 71% 30.06 in 10.0 mi NNW 12.7 mph 19.6 mph N/A   Clear
1:55 AM 46.4 °F 40.7 °F 39.2 °F 76% 30.06 in 10.0 mi NW 12.7 mph - N/A   Clear
2:15 AM 46.4 °F 40.4 °F 39.2 °F 76% 30.06 in 10.0 mi NW 13.8 mph - N/A   Clear
2:35 AM 46.4 °F 41.1 °F 39.2 °F 76% 30.06 in 10.0 mi NW 11.5 mph - N/A   Clear
2:55 AM 46.4 °F 42.4 °F 39.2 °F 76% 30.06 in 10.0 mi NW 8.1 mph - N/A   Clear
3:15 AM 46.4 °F 42.4 °F 39.2 °F 76% 30.06 in 10.0 mi NNW 8.1 mph - N/A   Clear
3:35 AM 44.6 °F 38.8 °F 39.2 °F 81% 30.07 in 10.0 mi NNW 11.5 mph - N/A   Clear
3:55 AM 44.6 °F 40.2 °F 39.2 °F 81% 30.07 in 10.0 mi NW 8.1 mph - N/A   Clear
4:15 AM 44.6 °F 38.8 °F 37.4 °F 76% 30.08 in 10.0 mi NNW 11.5 mph - N/A   Clear
4:35 AM 44.6 °F 40.2 °F 37.4 °F 76% 30.08 in 10.0 mi NNW 8.1 mph - N/A   Clear
4:55 AM 44.6 °F 40.2 °F 37.4 °F 76% 30.08 in 10.0 mi NNW 8.1 mph - N/A   Clear
5:15 AM 42.8 °F 38.6 °F 37.4 °F 81% 30.10 in 10.0 mi North 6.9 mph - N/A   Clear
5:35 AM 42.8 °F 41.1 °F 35.6 °F 76% 30.10 in 10.0 mi North 3.5 mph - N/A   Clear
5:55 AM 42.8 °F 39.3 °F 37.4 °F 81% 30.11 in 10.0 mi North 5.8 mph - N/A   Mostly Cloudy
6:15 AM 44.6 °F 39.7 °F 37.4 °F 76% 30.12 in 10.0 mi North 9.2 mph - N/A   Overcast
6:35 AM 44.6 °F 39.2 °F 35.6 °F 71% 30.13 in 10.0 mi North 10.4 mph - N/A   Overcast
6:50 AM 44.6 °F 38.8 °F 35.6 °F 71% 30.13 in 10.0 mi North 11.5 mph - N/A   Overcast
7:50 AM 44.6 °F 40.7 °F 37.4 °F 76% 30.16 in 10.0 mi North 6.9 mph - N/A   Mostly Cloudy
8:50 AM 48.2 °F - 39.2 °F 71% 30.17 in 10.0 mi North 11.5 mph - N/A   Mostly Cloudy
9:26 AM 50.0 °F - 42.8 °F 76% 30.17 in 10.0 mi North 16.1 mph - N/A   Scattered Clouds
9:50 AM 53.6 °F - 44.6 °F 72% 30.18 in 10.0 mi North 11.5 mph - N/A   Clear
10:50 AM 57.2 °F - 46.4 °F 67% 30.21 in 10.0 mi NNE 11.5 mph - N/A   Mostly Cloudy
11:50 AM 59.0 °F - 44.6 °F 59% 30.23 in 10.0 mi NNE 18.4 mph - N/A   Mostly Cloudy
12:50 PM 59.0 °F - 46.4 °F 63% 30.23 in 10.0 mi NNE 11.5 mph - N/A   Mostly Cloudy
1:50 PM 60.8 °F - 46.4 °F 59% 30.22 in 10.0 mi NNE 15.0 mph 24.2 mph N/A   Overcast
2:50 PM 60.8 °F - 48.2 °F 63% 30.21 in 10.0 mi NE 11.5 mph 24.2 mph N/A   Overcast
3:50 PM 60.8 °F - 48.2 °F 63% 30.20 in 10.0 mi NE 13.8 mph 24.2 mph N/A   Overcast
4:50 PM 59.0 °F - 50.0 °F 72% 30.21 in 10.0 mi NNE 15.0 mph 21.9 mph N/A   Overcast
5:50 PM 59.0 °F - 48.2 °F 67% 30.21 in 10.0 mi NE 16.1 mph 23.0 mph N/A   Overcast
6:50 PM 57.2 °F - 48.2 °F 72% 30.21 in 10.0 mi NE 16.1 mph 23.0 mph N/A   Overcast
7:50 PM 57.2 °F - 48.2 °F 72% 30.23 in 10.0 mi NE 11.5 mph 24.2 mph N/A   Mostly Cloudy
8:15 PM 55.4 °F - 48.2 °F 77% 30.23 in 10.0 mi NNE 9.2 mph - N/A   Mostly Cloudy
8:35 PM 55.4 °F - 46.4 °F 72% 30.24 in 10.0 mi NNE 11.5 mph 16.1 mph N/A   Scattered Clouds
8:55 PM 55.4 °F - 46.4 °F 72% 30.24 in 10.0 mi NNE 12.7 mph - N/A   Mostly Cloudy
9:15 PM 55.4 °F - 46.4 °F 72% 30.24 in 10.0 mi NNE 8.1 mph - N/A   Mostly Cloudy
9:35 PM 53.6 °F - 46.4 °F 77% 30.24 in 10.0 mi NNE 9.2 mph - N/A   Scattered Clouds
9:55 PM 53.6 °F - 46.4 °F 77% 30.24 in 10.0 mi NNE 9.2 mph - N/A   Partly Cloudy
10:15 PM 53.6 °F - 48.2 °F 82% 30.24 in 10.0 mi NNE 6.9 mph - N/A   Scattered Clouds
10:35 PM 53.6 °F - 48.2 °F 82% 30.24 in 10.0 mi North 5.8 mph - N/A   Mostly Cloudy
10:55 PM 53.6 °F - 48.2 °F 82% 30.24 in 10.0 mi North 6.9 mph - N/A   Overcast
11:15 PM 53.6 °F - 50.0 °F 88% 30.24 in 10.0 mi North 5.8 mph - N/A   Overcast
11:35 PM 53.6 °F - 50.0 °F 88% 30.25 in 10.0 mi NNW 6.9 mph - N/A   Overcast
11:55 PM 53.6 °F - 50.0 °F 88% 30.25 in 10.0 mi North 4.6 mph - N/A   Overcast